GW7220 Weather Reports


time (UTC)temp
C
wind
direction
speed
KPH
gust
KPH
rain 1hr
cm
rain 24hr
cm
rain mn
cm
humidity
%
barometer
mb
20260504182741 22 21 0.0 11.3 0.00 0.00 0.00 32 1008.6
20260504182238 22 76 3.2 9.7 0.00 0.00 0.00 34 1009.1
20260504181736 22 30 0.0 11.3 0.00 0.00 0.00 32 1009.0
20260504181233 22 12 3.2 4.8 0.00 0.00 0.00 34 1008.9
20260504180732 22 338 3.2 9.7 0.00 0.00 0.00 33 1009.2
20260504180230 22 281 1.6 4.8 0.00 0.00 0.00 33 1009.2
20260504175727 22 164 4.8 9.7 0.00 0.00 0.00 34 1009.1
20260504175224 22 333 1.6 16.1 0.00 0.00 0.00 31 1009.1
20260504174722 22 90 0.0 9.7 0.00 0.00 0.00 32 1009.3
20260504174220 22 107 4.8 9.7 0.00 0.00 0.00 36 1009.4
20260504173715 22 237 3.2 9.7 0.00 0.00 0.00 33 1009.6
20260504173213 22 359 4.8 6.4 0.00 0.00 0.00 34 1009.5
20260504172709 22 120 1.6 12.9 0.00 0.00 0.00 35 1009.6
20260504172206 22 34 3.2 6.4 0.00 0.00 0.00 32 1009.5
20260504171702 22 130 4.8 6.4 0.00 0.00 0.00 32 1009.9
20260504171159 22 108 3.2 9.7 0.00 0.00 0.00 34 1009.8
20260504170656 21 187 3.2 6.4 0.00 0.00 0.00 36 1009.9
20260504170154 21 5 1.6 11.3 0.00 0.00 0.00 32 1010.0
20260504160112 21 98 1.6 9.7 0.00 0.00 0.00 37 1010.9
20260504151039 20 328 3.2 9.7 0.00 0.00 0.00 38 1011.3
20260504150536 20 291 3.2 11.3 0.00 0.00 0.00 37 1011.3
20260504141002 18 123 1.6 4.8 0.00 0.00 0.00 46 1011.2
20260504140459 18 93 4.8 4.8 0.00 0.00 0.00 47 1011.5
20260504130423 16 217 3.2 9.7 0.00 0.00 0.00 54 1011.9
20260504110310 8 57 0.0 1.6 0.00 0.00 0.00 79 1012.5
20260504100228 7 66 0.0 1.6 0.00 0.00 0.00 75 1012.6
20260504081621 6 130 0.0 0.0 0.00 0.00 0.00 65 1012.2
20260504081117 6 93 0.0 0.0 0.00 0.00 0.00 63 1012.2
20260504080614 6 101 0.0 0.0 0.00 0.00 0.00 63 1012.3
20260504080111 6 72 0.0 0.0 0.00 0.00 0.00 62 1012.1
20260504050427 6 48 0.0 0.0 0.00 0.00 0.00 59 1012.2
20260504045924 7 48 0.0 0.0 0.00 0.00 0.00 58 1012.2
20260504045420 7 48 0.0 0.0 0.00 0.00 0.00 58 1012.1
20260504044916 7 55 0.0 0.0 0.00 0.00 0.00 58 1012.0
20260504044414 6 56 0.0 0.0 0.00 0.00 0.00 59 1012.1
20260504043911 6 63 0.0 0.0 0.00 0.00 0.00 59 1012.0
20260504043408 7 53 0.0 0.0 0.00 0.00 0.00 59 1012.0
20260504042905 7 53 0.0 0.0 0.00 0.00 0.00 58 1011.9
20260504042402 7 57 0.0 0.0 0.00 0.00 0.00 58 1012.0
20260504041858 7 57 0.0 0.0 0.00 0.00 0.00 58 1011.8
20260504041354 7 64 0.0 0.0 0.00 0.00 0.00 56 1011.6
20260504040850 7 66 0.0 0.0 0.00 0.00 0.00 55 1011.7
20260504040348 7 70 0.0 0.0 0.00 0.00 0.00 56 1011.8
20260504035843 7 63 0.0 0.0 0.00 0.00 0.00 59 1011.8
20260504035342 8 67 0.0 0.0 0.00 0.00 0.00 58 1011.8
20260504034838 7 68 0.0 0.0 0.00 0.00 0.00 56 1011.7
20260504034336 8 59 0.0 0.0 0.00 0.00 0.00 56 1011.5
20260504033832 8 68 0.0 0.0 0.00 0.00 0.00 56 1011.5
20260504033331 8 64 0.0 0.0 0.00 0.00 0.00 54 1011.5
20260504032827 8 64 0.0 0.0 0.00 0.00 0.00 54 1011.4
20260504032324 8 64 0.0 0.0 0.00 0.00 0.00 54 1011.5
20260504031821 8 94 0.0 0.0 0.00 0.00 0.00 55 1011.6
20260504031318 8 82 0.0 0.0 0.00 0.00 0.00 55 1011.3
20260504030814 8 65 0.0 0.0 0.00 0.00 0.00 56 1011.6
20260504030312 8 77 0.0 0.0 0.00 0.00 0.00 58 1011.5
20260504025808 8 67 0.0 0.0 0.00 0.00 0.00 56 1011.4
20260504025305 7 79 0.0 0.0 0.00 0.00 0.00 57 1011.6
20260504024801 7 94 0.0 0.0 0.00 0.00 0.00 56 1011.5
20260504024258 7 76 0.0 0.0 0.00 0.00 0.00 59 1011.4
20260504023755 7 54 0.0 0.0 0.00 0.00 0.00 58 1011.4
20260504023251 7 59 0.0 0.0 0.00 0.00 0.00 58 1011.4
20260504022747 7 63 0.0 0.0 0.00 0.00 0.00 58 1011.4
20260504022244 8 63 0.0 0.0 0.00 0.00 0.00 57 1011.6
20260504021741 8 73 0.0 0.0 0.00 0.00 0.00 57 1011.4
20260504021238 8 64 0.0 0.0 0.00 0.00 0.00 55 1011.7
20260504020735 8 85 0.0 0.0 0.00 0.00 0.00 53 1011.5
20260504020231 8 67 0.0 0.0 0.00 0.00 0.00 51 1011.2
20260504015728 9 63 0.0 0.0 0.00 0.00 0.00 52 1011.4
20260504015224 9 85 0.0 0.0 0.00 0.00 0.00 52 1011.1
20260504014720 9 91 0.0 0.0 0.00 0.00 0.00 51 1011.5
20260504014217 8 76 0.0 0.0 0.00 0.00 0.00 50 1011.2
20260504013715 8 72 0.0 0.0 0.00 0.00 0.00 52 1011.2
20260504013212 8 74 0.0 0.0 0.00 0.00 0.00 51 1011.2
20260504012708 9 67 0.0 0.0 0.00 0.00 0.00 51 1011.0
20260504012206 9 74 0.0 0.0 0.00 0.00 0.00 51 1011.2
20260504011703 10 71 0.0 0.0 0.00 0.00 0.00 50 1011.3
20260504011159 10 90 0.0 0.0 0.00 0.00 0.00 48 1011.1
20260504010655 10 76 0.0 0.0 0.00 0.00 0.00 49 1010.8
20260504010151 10 79 0.0 0.0 0.00 0.00 0.00 49 1011.0
20260504005648 10 111 0.0 0.0 0.00 0.00 0.00 47 1010.7
20260504005145 10 96 0.0 0.0 0.00 0.00 0.00 46 1010.6
20260504004643 11 83 0.0 0.0 0.00 0.00 0.00 46 1010.8
20260504004140 11 99 0.0 0.0 0.00 0.00 0.00 44 1010.7
20260504003636 11 100 0.0 0.0 0.00 0.00 0.00 44 1010.6
20260504003133 11 86 0.0 0.0 0.00 0.00 0.00 43 1010.4
20260504002630 11 91 0.0 0.0 0.00 0.00 0.00 42 1010.5
20260504002128 11 93 0.0 0.0 0.00 0.00 0.00 40 1010.2
20260504001625 12 88 0.0 0.0 0.00 0.00 0.00 41 1010.3
20260504001121 12 89 0.0 1.6 0.00 0.00 0.00 40 1010.2
20260504000619 12 89 0.0 0.0 0.00 0.00 0.00 40 1010.2
20260504000116 12 80 0.0 0.0 0.00 0.00 0.00 41 1010.2
20260503235614 12 85 0.0 1.6 0.00 0.00 0.00 38 1010.0
20260503235110 13 49 0.0 0.0 0.00 0.00 0.00 38 1010.0
20260503234608 13 84 0.0 1.6 0.00 0.00 0.00 37 1010.1
20260503234106 13 84 0.0 1.6 0.00 0.00 0.00 36 1010.0
20260503233603 13 11 1.6 3.2 0.00 0.00 0.00 35 1009.9
20260503233058 13 64 0.0 9.7 0.00 0.00 0.00 34 1009.9
20260503232555 14 82 0.0 1.6 0.00 0.00 0.00 35 1009.8
20260503232053 14 26 1.6 3.2 0.00 0.00 0.00 34 1009.9
20260503231551 14 30 1.6 4.8 0.00 0.00 0.00 33 1010.0
20260503231047 15 75 0.0 3.2 0.00 0.00 0.00 32 1009.8
20260503230544 15 59 0.0 1.6 0.00 0.00 0.00 32 1009.9
20260503230041 15 1 1.6 11.3 0.00 0.00 0.00 31 1009.9
20260503225538 15 339 4.8 6.4 0.00 0.00 0.00 30 1009.8
20260503225033 15 4 3.2 3.2 0.00 0.00 0.00 31 1009.7
20260503224531 15 16 4.8 12.9 0.00 0.00 0.00 31 1009.9
20260503224028 15 41 4.8 6.4 0.00 0.00 0.00 30 1009.9
20260503223526 15 264 8.0 12.9 0.00 0.00 0.00 30 1009.5
20260503223021 16 8 1.6 11.3 0.00 0.00 0.00 30 1009.8
20260503222520 15 340 0.0 3.2 0.00 0.00 0.00 30 1009.7
20260503222018 16 17 9.7 16.1 0.00 0.00 0.00 28 1009.7
20260503221516 16 311 6.4 9.7 0.00 0.00 0.00 28 1009.7
20260503221013 16 222 3.2 11.3 0.00 0.00 0.00 29 1009.6
20260503220509 16 8 4.8 6.4 0.00 0.00 0.00 29 1009.8
20260503220006 16 335 3.2 4.8 0.00 0.00 0.00 29 1009.9
20260503215503 16 118 1.6 12.9 0.00 0.00 0.00 29 1009.7
20260503215000 15 61 3.2 6.4 0.00 0.00 0.00 29 1009.8
20260503214458 15 331 6.4 12.9 0.00 0.00 0.00 28 1009.8
20260503213955 16 311 8.0 14.5 0.00 0.00 0.00 28 1009.7
20260503213453 16 326 4.8 6.4 0.00 0.00 0.00 29 1009.5
20260503212949 15 24 0.0 14.5 0.00 0.00 0.00 30 1009.4
20260503212447 15 11 1.6 16.1 0.00 0.00 0.00 29 1009.7
20260503211944 15 355 1.6 6.4 0.00 0.00 0.00 30 1009.7
20260503211441 15 127 0.0 4.8 0.00 0.00 0.00 31 1009.6
20260503210936 15 3 8.0 14.5 0.00 0.00 0.00 30 1009.9
20260503210434 15 324 4.8 12.9 0.00 0.00 0.00 30 1009.6
20260503205934 15 350 3.2 17.7 0.00 0.00 0.00 29 1009.8
20260503205431 15 359 4.8 20.9 0.00 0.00 0.00 29 1009.7
20260503204927 15 297 3.2 11.3 0.00 0.00 0.00 30 1009.7
20260503204425 15 154 3.2 9.7 0.00 0.00 0.00 29 1009.6
20260503203922 15 344 1.6 6.4 0.00 0.00 0.00 29 1010.0
20260503203419 15 12 3.2 9.7 0.00 0.00 0.00 30 1009.8
20260503202916 15 298 4.8 11.3 0.00 0.00 0.00 31 1010.2
20260503202414 15 15 0.0 4.8 0.00 0.00 0.00 33 1010.0
20260503201912 15 358 3.2 17.7 0.00 0.00 0.00 29 1009.9
20260503201409 15 355 9.7 14.5 0.00 0.00 0.00 32 1009.9
20260503200906 13 327 8.0 12.9 0.00 0.00 0.00 32 1010.0
20260503200402 14 310 4.8 17.7 0.00 0.00 0.00 33 1009.9
20260503195859 15 13 3.2 20.9 0.00 0.00 0.00 31 1010.1
20260503195356 15 328 4.8 14.5 0.00 0.00 0.00 33 1010.0
20260503194853 15 317 8.0 14.5 0.00 0.00 0.00 32 1010.1
20260503194349 14 4 6.4 9.7 0.00 0.00 0.00 33 1010.1
20260503193845 15 337 17.7 22.5 0.00 0.00 0.00 30 1010.3
20260503193341 14 267 6.4 25.7 0.00 0.00 0.00 32 1010.4
20260503192837 14 7 6.4 17.7 0.00 0.00 0.00 32 1010.3
20260503192333 15 323 6.4 14.5 0.00 0.00 0.00 31 1010.4
20260503191829 15 319 9.7 20.9 0.00 0.00 0.00 31 1010.4
20260503191326 15 37 12.9 16.1 0.00 0.00 0.00 31 1010.4
20260503190823 14 248 6.4 17.7 0.00 0.00 0.00 30 1010.3
20260503190320 14 313 8.0 12.9 0.00 0.00 0.00 32 1010.5
20260503185817 13 7 8.0 16.1 0.00 0.00 0.00 33 1010.4
20260503185314 13 38 6.4 24.1 0.00 0.00 0.00 34 1010.3
20260503184814 14 57 12.9 20.9 0.00 0.00 0.00 32 1010.7
20260503184310 14 16 3.2 12.9 0.00 0.00 0.00 35 1010.7
20260503183806 13 275 1.6 14.5 0.00 0.00 0.00 36 1010.6
20260503183303 13 332 16.1 22.5 0.00 0.00 0.00 33 1010.9